Погода в Нукусе

Погода в Нукусе : погода сейчас, прогноз погоды и архив. Всё, что Вы хотите узнать о погоде в Нукусе!

Поиск расширенной информации на нашем сайте:

Полезная информация: Дома и земельные участки: оформление прав на земельный участок.

Другие новости

Новости СМИ2

Главная страница сайта

Новости сайта

03.07.2017

Напоминаем, что на нашем специализированном сайте Метеоцентр.Азия вы можете получить высокодетализированные автоматические прогнозы погоды по пунктам России, СНГ и мира в авиационном формате (включающие направление и скорость ветра, видимость, явления погоды, количество и форму облачности, нижнюю и верхнюю границу облачности).

Рекомендуем: торчки: полный улёт смотреть онлайн

Погода в Нукусе - сегодня

Время (UTC), дата Ветер
(°,м/с) 
Видим.   Явления Облачность Т
(°С)
Тd
(°С)
f(%) Тe
(°С)
Pmin
(гПа)
dP
(гПа)
Po
(мм)
O2
(г/м3)
Тmin Tmax R s Состояние
почвы
15 17.11.17 130 (ЮВ) 20000 м    1/0 верхняя 
[Ci fib]
+8.1 -1.4 51 +7  1024.1  -0.2  761  298    +14.8       
18 17.11.17 150 (ЮВ) 20000 м    3/0 средняя 
[Ac trans]
+8.7 -2.2 46 +8  1023.5  -0.6  761  297    +14.8       
21 17.11.17 250 (З) 20000 м    4/0 средняя 
[Ac trans]
+6.7 -0.6 60 +7  1023.2  -0.2  760  299           
00 18.11.17 320 (СЗ) 20000 м    6/6 240 м 
[St]
+4.4 +2.4 87 +1  1026.7  3.2  763  302           
06 18.11.17 360 (С) 20000 м    ясно 
+3.7 -3.3 60 +1  1031.8  2.6  767  305  +1.4         
09 18.11.17 020 (С) 20000 м    1/0 верхняя 
[Ci fib]
+6.8 -5.2 42 +5  1032  0.4  767  302           
12 18.11.17 050 (СВ) 20000 м    ясно 
+6.4 -5.9 41 +5  1032.8  0.8  768  303           
15 18.11.17 050 (СВ) 20000 м    ясно 
+0.8 -5.7 62 1034  0.9  768  309    +7.5       
18 18.11.17 070 (В) 20000 м    ясно 
-1.3 -5.7 72 -3  1034.7  0.7  769  312    +7.5       
21 18.11.17 070 (В) 20000 м    ясно 
-1 -4.2 79 -3  1034.4  -0.4  768  311           
00 19.11.17 070 (В) 20000 м    ясно 
-2.8 -4.8 86 -5  1033.6  -0.7  768  313           
03 19.11.17 070 (В) 20000 м    3/0 верхняя 
[Ci fib]
-2 -4.5 83 -5  1033.1  -0.5             
06 19.11.17 080 (В) 20000 м    1/0 средняя 
[Ac trans]
+2.9 -4.7 57 1033.5  0.5  768  307  -3.2         
09 19.11.17 070 (В) 20000 м    ясно 
+8.8 -7.4 31 +7  1030.9  -2.4  766  300           
12 19.11.17 060 (СВ) 20000 м    ясно 
+8.1 -9.4 28 +6  1029.7  -1.2  765  300           
15 19.11.17 070 (В) 20000 м    ясно 
+2.4 -8 46 1029.5  -0.4  765  306    +9.4       
18 19.11.17 070 (В) 20000 м    ясно 
-0.2 -8.3 54 -3  1028.9  -0.7  764  309    +9.4       
21 19.11.17 080 (В) 20000 м    ясно 
-0.2 -9.3 50 -2  1027.7  -1.2  764  309           
00 20.11.17 070 (В) 20000 м    ясно 
-3.5 -9.1 65 -6  1027.2  -0.5  763  312           
03 20.11.17 080 (В) 20000 м    ясно 
-4.1 -8.7 70 -7  1026.7  -0.5             
06 20.11.17 080 (В) 20000 м    1/0 верхняя 
[Ci fib]
+5 -6.1 44 +3  1026.2  -0.4  762  302  -4.4         
09 20.11.17 060 (СВ) 20000 м    1/0 верхняя 
[Ci fib]
+11.2 -5 32 +10  1023.8  -2  761  295           
12 20.11.17 050 (СВ) 20000 м    1/0 верхняя 
[Ci fib]
+10.6 -4.4 35 +10  1022.5  -1.2  760  295           
15 20.11.17 060 (СВ) 20000 м    3/0 верхняя 
[Ci fib]
+5.8 -3.2 52 +6  1022.7  760  300    +12.6       
18 20.11.17 110 (В) 20000 м    3/0 верхняя 
[Ci ing]
+6.2 -3 52 +5  1021.4  -1.3  759  299    +12.6       
Время (UTC), дата Ветер
(°,м/с) 
Видим.   Явления Облачность Т
(°С)
Тd
(°С)
f(%) Тe
(°С)
Pmin
(гПа)
dP
(гПа)
Po
(мм)
O2
(г/м3)
Тmin Tmax R s Состояние
почвы

Для получения пояснительной информации подведите курсор к названию столбца.

ПОГОДА в Нукусе - архив

Всё, что Вы хотите узнать о погоде в Нукусе - удобно и подробно!

Выберите нужную дату (начиная с 1 января 2015* года) и нажмите кнопку "Найти".
Будут отображены архивные сводки погоды по пункту Нукус, начиная с указанной даты.


Отображать данные в формате CSV (для использования в таблицах Excel)


Внимание! Наш архив погоды предназначен исключительно для личного некоммерческого использования в познавательных целях. Если Вам необходимы официальные справки о состоянии погоды (для производственных, юридических, коммерческих и т.п. целей), обращайтесь в органы Росгидромета.

*Примечание: данная дата относится к архиву по метеостанциям СССР (Россия, СНГ, Балтия).
Архив по метеостанциям Зарубежной Европы и Азии (кроме Китая) хранится 10 дней, по другим регионам земного шара (Китай, Африка, Америка, Австралия, Океания) - 1 день.

Нукус - район местоположения метеостанции


Название, широта, долгота, высота метеостанции:
Нукус 42.4°ш. 59.6°д. 77 м над ур. моря [Узбекистан]

Дополнительная информация

В oтличие oт бoльшинства пoгoдных сайтoв мы публикуем пoдрoбную метеoинфoрмацию в детальнoм прoфессиoнальнoм фoрмате.

Характеристики температуры и влажнoсти вoздуха измеряются на высoте 2 м в тени вдали oт зданий и деревьев.
Скoрoсть ветра измеряется на высoте 10 м (на урoвне рoста челoвека скoрoсть ветра ниже в 1.5-2 раза). Если метеoстанция нахoдится в гoрoде или в лесу, тo скoрoсть ветра занижена на 2-4 м/с пo сравнению с oткрытым местoм. Скoрoсть ветра над акватoриями крупных рек и oзёр, а также на вершинах хoлмoв на 2-5 м/с выше, чем в oбычных услoвиях.
Атмoсфернoе давление в разных тoчках местнoсти мoжет значительнo oтличаться oт давления на метеoстанции, в зависимoсти oт услoвий рельефа (при пoдъёме на 10 м давление пoнижается примернo на 1 мм рт.ст.).